Weather History for Nancy, France

Change the Weather History Date:

Sunday, April 20, 2014

  Actual Average Record
Temperature  
Mean Temperature 54 °F -  
Max Temperature 68 °F 62 °F 73 °F (2011)
Min Temperature 40 °F 45 °F 32 °F (1999)
Degree Days  
Heating Degree Days 11    
Growing Degree Days 4 (Base 50)    
Moisture  
Dew Point 44 °F    
Average Humidity 66    
Maximum Humidity 94    
Minimum Humidity 26    
Precipitation  
Precipitation 0.00 in 0.09 in - ()
Sea Level Pressure  
Sea Level Pressure 29.69 in    
Wind  
Wind Speed 3 mph ()    
Max Wind Speed 10 mph    
Max Gust Speed -    
Visibility 6.6 miles    
Events      
Averages and records for this station are not official NWS values.
T = Trace of Precipitation, MM = Missing Value Source: Averaged Metar Reports

Daily Weather History Graph

Daily Weather History Graph

Search for Another Location

Airport:

Trip Planner

Search our weather history database for the weather conditions in past years. The results will help you decide how hot, cold, wet, or windy it might be!

Date:

Astronomy

Apr. 20, 2014 Rise Set
Actual Time 6:35 AM CEST 8:33 PM CEST
Civil Twilight 6:01 AM CEST 9:07 PM CEST
Nautical Twilight 5:20 AM CEST 9:49 PM CEST
Astronomical Twilight 4:33 AM CEST 10:36 PM CEST
Moon 1:09 AM CEST 10:28 AM CEST
Length of Visible Light 15h 05m
Length of Day
13h 58m
Waning Gibbous, 71% of the Moon is Illuminated
Apr 20
Waning Gibbous
Apr 22
Last Quarter
Apr 29
New
May 7
First Quarter
May 14
Full

Hourly Weather History & Observations

Time (CEST) Temp. Windchill Dew Point Humidity Pressure Visibility Wind Dir Wind Speed Gust Speed Precip Events Conditions
12:00 AM 49 °F - 41 °F 64% 29.79 in 9 mi NNW 2.3 mph - -   Clear
12:00 AM 50.0 °F - 41.0 °F 71% 29.77 in 6.2 mi NNW 2.3 mph - N/A   Overcast
12:30 AM 48.2 °F - 42.8 °F 82% 29.77 in 6.2 mi Variable 1.2 mph - N/A   Overcast
1:00 AM 49 °F - 42 °F 67% 29.78 in 8 mi Calm Calm - -   Clear
1:00 AM 48.2 °F - 41.0 °F 76% 29.74 in 6.2 mi Calm Calm - N/A   Overcast
1:30 AM 48.2 °F - 41.0 °F 76% 29.74 in 6.2 mi Calm Calm - N/A   Overcast
2:00 AM 48 °F - 42 °F 72% 29.75 in 7 mi South 1.2 mph - -   Clear
2:00 AM 48.2 °F - 42.8 °F 82% 29.74 in 6.2 mi Variable 1.2 mph - N/A   Overcast
2:30 AM 48.2 °F - 42.8 °F 82% 29.71 in 5.6 mi Variable 1.2 mph - N/A   Unknown
3:00 AM 48 °F - 42 °F 75% 29.74 in 6 mi Calm Calm - -   Clear
3:00 AM 48.2 °F - 42.8 °F 82% 29.71 in 6.2 mi Calm Calm - N/A   Overcast
3:30 AM 48.2 °F - 42.8 °F 82% 29.71 in 6.2 mi SE 2.3 mph - N/A   Overcast
4:00 AM 48 °F - 43 °F 77% 29.73 in 6 mi SE 2.3 mph - -   Clear
4:00 AM 48.2 °F - 42.8 °F 82% 29.71 in 6.2 mi SE 2.3 mph - N/A   Unknown
4:30 AM 48.2 °F - 42.8 °F 82% 29.71 in 6.2 mi Variable 1.2 mph - N/A   Unknown
5:00 AM 48 °F - 42 °F 75% 29.72 in 7 mi East 3.5 mph - -   Clear
5:00 AM 48.2 °F - 42.8 °F 82% 29.71 in 6.2 mi East 3.5 mph - N/A   Unknown
5:30 AM 48.2 °F - 42.8 °F 82% 29.68 in 5.6 mi South 3.5 mph - N/A   Mostly Cloudy
6:00 AM 42 °F - 39 °F 85% 29.73 in 5 mi East 3.5 mph - -   Scattered Clouds
6:00 AM 42.8 °F 41.1 °F 39.2 °F 87% 29.68 in 3.7 mi East 3.5 mph - N/A   Partly Cloudy
6:30 AM 41.0 °F 39.0 °F 39.2 °F 93% 29.68 in 3.1 mi SE 3.5 mph - N/A   Mist
7:00 AM 41 °F - 40 °F 94% 29.73 in 4 mi SE 3.5 mph - -   Scattered Clouds
7:00 AM 41.0 °F 39.0 °F 39.2 °F 93% 29.71 in - SE 3.5 mph - N/A   Mist
7:30 AM 41.0 °F - 39.2 °F 93% 29.71 in - Variable 2.3 mph - N/A   Mostly Cloudy
8:00 AM 45 °F - 42 °F 87% 29.73 in 4 mi South 1.2 mph - -   Mostly Cloudy
8:00 AM 44.6 °F - 42.8 °F 93% 29.71 in 3.7 mi Calm Calm - N/A   Overcast
8:30 AM 46.4 °F - 42.8 °F 87% 29.71 in 4.3 mi Variable 1.2 mph - N/A   Overcast
9:00 AM 47 °F - 44 °F 83% 29.73 in 5 mi ESE 2.3 mph - -   Mostly Cloudy
9:00 AM 46.4 °F - 42.8 °F 87% 29.71 in 4.3 mi Variable 2.3 mph - N/A   Overcast
9:30 AM 48.2 °F - 42.8 °F 82% 29.71 in 5.0 mi Variable 3.5 mph - N/A   Overcast
10:00 AM 49 °F - 43 °F 74% 29.73 in 5 mi SSE 3.5 mph - -   Mostly Cloudy
10:00 AM 48.2 °F - 42.8 °F 82% 29.71 in 5.6 mi SSE 3.5 mph - N/A   Overcast
10:30 AM 51.8 °F - 42.8 °F 71% 29.71 in 6.2 mi South 4.6 mph - N/A   Overcast
11:00 AM 54 °F - 42 °F 54% 29.72 in 9 mi South 6.9 mph - -   Scattered Clouds
11:00 AM 55.4 °F - 42.8 °F 63% 29.71 in 6.2 mi South 6.9 mph - N/A   Mostly Cloudy
11:30 AM 57.2 °F - 41.0 °F 55% 29.71 in 6.2 mi South 4.6 mph - N/A   Partly Cloudy
12:00 PM 58 °F - 45 °F 51% 29.70 in 9 mi South 4.6 mph - -   Clear
12:00 PM 57.2 °F - 44.6 °F 63% 29.68 in 6.2 mi Variable 4.6 mph - N/A   Unknown
12:30 PM 59.0 °F - 44.6 °F 59% 29.68 in 6.2 mi Variable 5.8 mph - N/A   Unknown
1:00 PM 60 °F - 45 °F 47% 29.69 in 11 mi SE 8.1 mph - -   Scattered Clouds
1:00 PM 60.8 °F - 44.6 °F 55% 29.68 in 6.2 mi SE 8.1 mph - N/A   Unknown
1:30 PM 62.6 °F - 44.6 °F 52% 29.68 in 6.2 mi SSE 6.9 mph - N/A   Unknown
2:00 PM 63 °F - 47 °F 46% 29.67 in 11 mi SE 5.8 mph - -   Scattered Clouds
2:00 PM 62.6 °F - 48.2 °F 59% 29.68 in 6.2 mi SE 5.8 mph - N/A   Unknown
2:30 PM 64.4 °F - 46.4 °F 52% 29.65 in 6.2 mi East 4.6 mph - N/A   Unknown
3:00 PM 64 °F - 46 °F 41% 29.66 in 11 mi East 5.8 mph - -   Scattered Clouds
3:00 PM 64.4 °F - 46.4 °F 52% 29.65 in 6.2 mi Variable 5.8 mph - N/A   Scattered Clouds
3:30 PM 64.4 °F - 46.4 °F 52% 29.65 in 6.2 mi ESE 8.1 mph - N/A   Partly Cloudy
4:00 PM 65 °F - 46 °F 40% 29.64 in 11 mi East 6.9 mph - -   Scattered Clouds
4:00 PM 66.2 °F - 46.4 °F 49% 29.65 in 6.2 mi East 6.9 mph - N/A   Partly Cloudy
4:30 PM 64.4 °F - 46.4 °F 52% 29.65 in 6.2 mi SE 6.9 mph - N/A   Partly Cloudy
5:00 PM 66 °F - 46 °F 37% 29.63 in 11 mi East 4.6 mph - -   Scattered Clouds
5:00 PM 66.2 °F - 46.4 °F 49% 29.62 in 6.2 mi Variable 4.6 mph - N/A   Unknown
5:30 PM 68.0 °F - 42.8 °F 40% 29.62 in 6.2 mi South 3.5 mph - N/A   Unknown
6:00 PM 68 °F - 41 °F 26% 29.62 in 12 mi South 3.5 mph - -   Clear
6:00 PM 68.0 °F - 41.0 °F 37% 29.62 in 6.2 mi Variable 3.5 mph - N/A   Unknown
6:30 PM 68.0 °F - 42.8 °F 40% 29.62 in 6.2 mi South 4.6 mph - N/A   Unknown
7:00 PM 67 °F - 43 °F 31% 29.62 in 28 mi South 2.3 mph - -   Clear
7:00 PM 66.2 °F - 42.8 °F 43% 29.62 in 6.2 mi Variable 2.3 mph - N/A   Unknown
7:30 PM 60.8 °F - 46.4 °F 59% 29.62 in 6.2 mi East 10.4 mph - N/A   Unknown
8:00 PM 59 °F - 45 °F 50% 29.65 in 31 mi East 8.1 mph - -   Clear
8:00 PM 59.0 °F - 44.6 °F 59% 29.65 in 6.2 mi East 8.1 mph - N/A   Unknown
8:30 PM 59.0 °F - 44.6 °F 59% 29.65 in 6.2 mi ESE 4.6 mph - N/A   Unknown
9:00 PM 58 °F - 45 °F 52% 29.66 in 28 mi SW 2.3 mph - -   Clear
9:00 PM 57.2 °F - 44.6 °F 63% 29.65 in 6.2 mi Variable 2.3 mph - N/A   Unknown
9:30 PM 57.2 °F - 44.6 °F 63% 29.65 in 6.2 mi Variable 2.3 mph - N/A   Unknown
10:00 PM 56 °F - 47 °F 63% 29.67 in 12 mi Calm Calm - -   Clear
10:00 PM 57.2 °F - 46.4 °F 67% 29.65 in 6.2 mi Calm Calm - N/A   Unknown
10:30 PM 55.4 °F - 46.4 °F 72% 29.65 in 6.2 mi Variable 2.3 mph - N/A   Unknown
11:00 PM 55 °F - 46 °F 64% 29.67 in 12 mi ENE 3.5 mph - -   Clear
11:00 PM 55.4 °F - 46.4 °F 72% 29.65 in 6.2 mi ENE 3.5 mph - N/A   Unknown
11:30 PM 53.6 °F - 46.4 °F 77% 29.65 in 6.2 mi ENE 3.5 mph - N/A   Unknown